Погода в Усть-Таре

Россия / Омская область     56°40′30″N   74°39′11″E
темп.,
°C
ветер,
м/с
пор.,
м/с
влажн.,
%
обл.,
%
осадки,
мм/ч
давл.,
гПа
погр.,
м
18 октября, пн
пн1800:00+4юз3386100 0.0 102146
03:00+4юз228910 0.0 102138
06:00+3юз22905 0.0 102126
09:00+3юз25845 0.0 1022135
12:00+8юз465777 0.0 1022526
15:00+10юз464749 0.0 1021859
18:00+6ююз346158 0.0 102145
21:00+5ююз376677 0.0 1021110
19 октября, вт
вт1900:00+5ю3970100 0.0 1021184
03:00+6ю41081100 0.0 1020233
06:00+6ю4117998 0.0 1020226
09:00+7ю4107047 0.0 1020229
12:00+12ююз5114998 0.0 1019462
15:00+13ююз5114763 0.0 1018595
18:00+10ю4105975 0.0 1018219
21:00+9ю41265100 0.0 1017279
20 октября, ср
ср2000:00+8ю41271100 0.0 1017303
03:00+7ю41272100 0.0 1016278
06:00+5ююв4106993 0.0 1015218
09:00+5ююв41060100 0.0 1014264
12:00+9ю5846100 0.0 1013404
15:00+11ю474293 0.0 1011547
18:00+7ююв355677 0.0 101178
21:00+6ююв3661100 0.0 1011106
21 октября, чт
чт2100:00+6ююв3760100 0.0 1009138
03:00+5юв376198 0.0 1008134
06:00+4юв386498 0.0 1006142
09:00+6ююв41057100 0.0 1005238
12:00+10ю484699 0.0 1004359
15:00+11ю474399 0.0 1003489
18:00+8ююв335776 0.0 100341
21:00+6ю3660100 0.0 100498
22 октября, пт
пт2200:00+6ю41159100 0.0 1004252
03:00+6юз5118540 0.0 1006749
06:00+3ююз511865 0.0 1007433
09:00+3ююз5127792 0.0 1008723
12:00+6ююз7125658 0.0 10071505
15:00+6ююз71149100 0.0 10061805
18:00+4ююз61060100 0.0 10061057
21:00+3ююз7126697 0.0 1004935